Regional Weather Roundup
Issued by NWS Raleigh/Durham, NC

Home | Current Version | Previous Version | Text Only | Print | Product List | Glossary On
Versions: 1 2 3 4 5 6 7 8 9 10 11 12 13 14 15 16 17 18 19 20 21 22 23 24 25 26 27 28 29 30 31 32 33 34 35 36 37 38 39 40 41 42 43 44 45 46 47 48 49 50
000
ASUS42 KRAH 181010
RWRRAH
NORTH CAROLINA WEATHER ROUNDUP
NATIONAL WEATHER SERVICE RALEIGH NC
500 AM EST WED JAN 18 2017

NOTE: "FAIR" INDICATES FEW OR NO CLOUDS BELOW 12,000 FEET WITH NO
SIGNIFICANT WEATHER AND/OR OBSTRUCTIONS TO VISIBILITY.

NCZ001-053-055-056-065-067-181100-
WESTERN NORTH CAROLINA

CITY           SKY/WX    TMP DP  RH WIND       PRES   REMARKS
ASHEVILLE      CLOUDY    61  51  70 N14       30.02S
JEFFERSON      CLOUDY    52  42  69 W22G32    29.97F
MORGANTON      CLOUDY    58  54  88 SW3       30.00S
HICKORY        CLOUDY    58  55  90 SW3       29.95S
RUTHERFORDTON  NOT AVBL
MOUNT AIRY     CLOUDY    55  53  95 CALM      29.96F
BOONE          DRIZZLE   51  50  96 W17G29    30.01F
$$

NCZ021-022-025-041-071-084-088-181100-
CENTRAL NORTH CAROLINA

CITY           SKY/WX    TMP DP  RH WIND       PRES   REMARKS
CHARLOTTE      CLOUDY    63  55  75 SW9       29.98R
GREENSBORO     CLOUDY    60  57  89 W9        29.93F
WINSTON-SALEM  CLOUDY    58  54  86 CALM      29.95F
RALEIGH-DURHAM CLOUDY    61  55  81 SW8       29.94S
FORT BRAGG     CLOUDY    64  56  75 SW8G18    29.95S
FAYETTEVILLE   CLOUDY    65  57  75 SW13G24   29.96F
BURLINGTON     CLOUDY    62  56  80 NW6       29.95R
LAURINBURG     CLOUDY    62  57  83 SW15      29.97F
$$

NCZ011-015-027-028-043-044-047-080-103-181100-
NORTHEASTERN NORTH CAROLINA

CITY           SKY/WX    TMP DP  RH WIND       PRES   REMARKS
ROCKY MT-WILSO CLOUDY    62  57  83 SW9       29.92F
GREENVILLE     CLOUDY    63  59  88 SW9       29.95F
WASHINGTON     CLOUDY    61  56  84 SW9       29.95F
ELIZABETH CITY MOCLDY    59  56  89 SW8       29.92S
MANTEO         LGT RAIN  57  55  93 W13G20    29.92F
CAPE HATTERAS  CLOUDY    61  56  83 SW14      29.96F HAZE
$$

NCZ078-087-090-091-093-098-101-181100-
SOUTHEASTERN NORTH CAROLINA

CITY           SKY/WX    TMP DP  RH WIND       PRES   REMARKS
LUMBERTON      CLOUDY    63  58  83 SW13      29.99S
GOLDSBORO      CLOUDY    62  61  96 SW7       29.93F
KINSTON        CLOUDY    64  57  78 SW14      29.96F
KENANSVILLE    NOT AVBL
NEW BERN       CLOUDY    63  56  78 SW10G18   29.99S
CHERRY POINT   CLOUDY    63  57  81 SW12      29.99F
BEAUFORT       CLOUDY    59  56  89 MISG      30.00F
JACKSONVILLE   MOCLDY    63  58  83 SW9       29.99S
WILMINGTON     PTCLDY    63  57  81 SW13      30.01F
$$




USA.gov is the U.S. government's official web portal to all federal, state and local government web resources and services.